Holloman AFB, NM

11:46 AM MDT on March 29, 2017 (GMT -0600)
Holloman Air Force Base

Weather History for KHMN - November, 2011

Change the Weather History Date:

Monday, November 14, 2011

  Actual Average Record
Temperature  
Mean Temperature 56 °F -  
Max Temperature 65 °F 61 °F 76 °F (2007)
Min Temperature 47 °F 33 °F 24 °F (2000)
Degree Days  
Heating Degree Days 9    
Growing Degree Days 6 (Base 50)    
Moisture  
Dew Point 44 °F    
Average Humidity 62    
Maximum Humidity 84    
Minimum Humidity 43    
Precipitation  
Precipitation 0.00 in - - ()
Sea Level Pressure  
Sea Level Pressure 29.76 in    
Wind  
Wind Speed 9 mph (SSE)    
Max Wind Speed 14 mph    
Max Gust Speed -    
Visibility 10 miles    
Events      
Averages and records for this station are not official NWS values.
T = Trace of Precipitation, MM = Missing Value Source: NWS Daily Summary

Daily Weather History Graph

Daily Weather History Graph

Search for Another Location

Airport or City:

Trip Planner

Search our weather history database for the weather conditions in past years. The results will help you decide how hot, cold, wet, or windy it might be!

Date:

Astronomy

Nov. 14, 2011 Rise Set
Actual Time 6:33 AM MST 5:03 PM MST
Civil Twilight 6:07 AM MST 5:29 PM MST
Nautical Twilight 5:37 AM MST 5:59 PM MST
Astronomical Twilight 5:08 AM MST 6:28 PM MST
Moon 8:16 PM MST (11/14) 9:49 AM MST (11/14)
Length of Visible Light 11h 22m
Length of Day
10h 30m
Waning Gibbous, 86% of the Moon is Illuminated
Nov 14
Waning Gibbous
Nov 18
Last Quarter
Nov 24
New
Dec 2
First Quarter
Dec 10
Full

Hourly Weather History & Observations

Time (MST) Temp. Dew Point Humidity Pressure Visibility Wind Dir Wind Speed Gust Speed Precip Events Conditions
12:55 AM 57.4 °F 44.2 °F 62% 29.77 in 10.0 mi South 10.4 mph - N/A   Overcast
1:55 AM 56.7 °F 44.6 °F 64% 29.76 in 10.0 mi SE 11.5 mph - N/A   Overcast
2:55 AM 56.1 °F 45.7 °F 68% 29.76 in 10.0 mi SSE 9.2 mph - N/A   Clear
3:55 AM 54.9 °F 48.2 °F 78% 29.75 in 10.0 mi SSE 12.7 mph - N/A   Mostly Cloudy
4:55 AM 53.2 °F 48.4 °F 84% 29.77 in 10.0 mi SSE 13.8 mph - N/A   Mostly Cloudy
5:55 AM 52.7 °F 47.3 °F 82% 29.78 in 10.0 mi SE 11.5 mph - N/A   Scattered Clouds
6:55 AM 53.8 °F 47.1 °F 78% 29.80 in 10.0 mi SSE 13.8 mph - N/A   Overcast
7:55 AM 54.7 °F 47.7 °F 77% 29.83 in 10.0 mi SSE 6.9 mph - N/A   Partly Cloudy
8:55 AM 55.8 °F 47.7 °F 74% 29.83 in 10.0 mi South 8.1 mph - N/A   Clear
9:55 AM 59.9 °F 46.8 °F 62% 29.81 in 10.0 mi Variable 5.8 mph - N/A   Clear
10:55 AM 62.2 °F 45.9 °F 55% 29.80 in 10.0 mi South 4.6 mph - N/A   Partly Cloudy
11:55 AM 63.7 °F 44.1 °F 49% 29.75 in 10.0 mi SSE 5.8 mph - N/A   Partly Cloudy
12:55 PM 63.0 °F 42.6 °F 47% 29.71 in 10.0 mi Calm Calm - N/A   Mostly Cloudy
1:55 PM 63.3 °F 42.4 °F 46% 29.69 in 10.0 mi Calm Calm - N/A   Partly Cloudy
2:55 PM 65.5 °F 42.1 °F 43% 29.67 in 10.0 mi Variable 5.8 mph - N/A   Partly Cloudy
3:55 PM 64.8 °F 41.5 °F 43% 29.68 in 10.0 mi SSE 9.2 mph - N/A   Clear
4:55 PM 63.0 °F 42.1 °F 46% 29.69 in 10.0 mi SSE 8.1 mph - N/A   Partly Cloudy
5:55 PM 59.7 °F 42.3 °F 52% 29.73 in 10.0 mi SSE 6.9 mph - N/A   Partly Cloudy
6:55 PM 55.4 °F 39.2 °F 54% 29.75 in 10.0 mi South 5.8 mph - N/A   Clear
7:55 PM 53.4 °F 39.6 °F 59% 29.78 in 10.0 mi South 6.9 mph - N/A   Clear
8:55 PM 52.5 °F 39.7 °F 62% 29.78 in 10.0 mi SE 5.8 mph - N/A   Clear
9:55 PM 51.3 °F 39.9 °F 65% 29.78 in 10.0 mi SE 5.8 mph - N/A   Clear
10:55 PM 47.3 °F 37.8 °F 69% 29.77 in 10.0 mi SE 3.5 mph - N/A   Clear
11:55 PM 47.8 °F 38.3 °F 70% 29.77 in 10.0 mi SE 5.8 mph - N/A   Clear